Theta_e
331 326 327 331 330 325 324 324 323 319 318 314 314 321 326 328 329 330 331 330 329 329 328 327 325 322 323 324 325 326 326 326 326 327 326 326 325 325 324 323 323 321 321 321 321 321 323 323 320 317 314 312 311 310 309 309 308 308 307 306 306 307 307 306 306 306 307 308 308 308 308 308 308 308 308 308 308 307 308 308 307 306 306 306 307
333 326 326 328 328 329 326 323 324 320 319 318 316 322 328 329 330 330 331 331 330 329 329 327 325 324 324 325 326 326 327 326 326 326 327 327 326 325 325 324 323 322 322 322 323 323 322 322 319 317 317 314 313 312 309 309 308 307 306 306 306 306 306 305 305 305 306 307 307 307 307 307 308 307 307 308 307 308 307 307 307 306 306 306 306
332 326 325 326 325 327 326 323 325 324 322 322 318 322 327 329 329 331 331 331 330 329 329 327 326 325 325 327 327 327 328 327 326 327 327 327 326 326 325 324 324 323 323 323 323 322 319 319 320 321 320 316 314 312 309 309 308 307 306 305 305 305 305 305 305 305 305 306 307 307 307 307 307 307 307 308 307 307 307 307 306 306 306 306 306
330 327 326 327 325 325 326 326 327 326 325 326 323 322 325 327 329 330 331 331 330 329 329 327 326 326 326 327 327 328 328 327 327 327 327 326 326 325 325 324 324 323 323 321 320 317 317 319 322 321 317 315 315 312 309 309 309 308 307 306 305 305 305 305 305 305 305 306 306 306 307 307 307 307 307 307 307 306 307 306 306 306 306 306 307
330 329 328 329 328 325 325 325 326 327 327 328 327 325 325 326 327 329 331 331 330 329 329 327 327 327 327 328 328 328 328 327 327 328 327 326 325 325 325 324 324 324 322 320 317 316 317 320 322 318 313 315 316 312 311 311 309 308 307 307 306 305 305 305 305 305 305 305 306 306 306 307 307 307 307 307 306 306 306 306 307 307 307 308 308
331 331 330 331 330 328 326 324 326 327 327 327 329 328 327 326 327 329 331 331 331 330 329 328 326 326 327 328 328 328 328 328 328 328 327 326 325 325 325 325 324 324 321 318 316 315 316 317 316 313 310 312 312 314 314 311 309 308 307 307 306 306 306 305 305 305 305 305 305 306 306 307 307 307 307 306 306 306 307 308 309 310 311 312 313
331 332 332 332 332 331 329 327 327 327 326 327 328 329 329 328 327 329 330 331 330 330 329 328 326 326 327 328 329 329 328 328 328 328 326 325 326 326 326 325 324 322 321 320 318 316 315 314 312 310 310 309 311 315 313 308 307 307 306 306 306 306 305 305 305 305 305 305 306 306 307 307 307 307 307 306 307 309 311 314 315 316 317 318 318
331 332 333 333 332 332 331 330 329 328 327 327 327 329 329 329 329 329 330 330 330 329 328 327 326 326 328 329 329 329 329 328 328 328 326 325 326 326 326 326 324 322 322 322 321 318 316 316 315 313 313 312 313 315 311 308 307 305 305 305 304 305 304 305 305 305 305 305 306 307 307 307 307 307 307 308 312 315 318 319 320 320 320 320 320
331 332 333 333 333 332 331 330 329 328 327 327 327 328 329 329 329 329 330 330 329 328 327 327 326 327 328 330 329 329 329 328 328 327 326 325 326 326 326 326 325 323 322 324 324 322 319 319 320 318 318 319 317 315 314 313 310 307 305 304 305 304 304 305 305 306 307 306 307 308 307 307 308 308 311 315 318 320 321 321 321 321 321 321 321
332 332 332 333 333 333 332 331 330 328 326 327 327 327 329 329 329 329 330 329 329 327 327 327 326 328 329 330 329 329 329 329 328 327 325 326 326 325 326 327 327 325 324 325 326 324 323 324 324 323 323 324 322 321 319 316 313 311 307 305 308 308 306 306 307 306 307 307 307 307 308 310 311 314 318 320 321 322 322 322 321 321 321 321 321
332 332 333 333 332 332 332 331 331 330 327 326 327 327 328 329 329 329 329 329 329 328 327 327 327 329 330 330 329 329 330 329 328 327 326 326 326 326 326 327 327 326 325 325 325 325 326 327 327 326 326 326 326 325 325 322 317 313 311 310 310 310 309 307 307 307 307 307 307 308 311 315 318 320 321 322 322 322 321 321 321 321 321 321 322
330 332 332 333 333 332 332 332 331 331 329 326 325 325 327 329 329 329 329 329 329 328 328 328 330 331 331 330 330 330 330 329 328 327 327 327 327 327 327 327 328 327 326 326 325 324 325 326 327 327 327 327 327 326 326 327 323 316 314 316 313 309 308 307 307 307 307 307 309 312 316 319 321 321 322 322 322 322 321 321 321 321 321 322 323
330 331 331 332 333 333 332 332 332 331 330 326 324 323 325 329 330 329 329 329 328 328 328 330 331 332 331 331 331 330 330 328 328 328 328 328 328 328 327 327 328 327 326 327 326 325 324 324 325 326 327 327 328 327 326 326 326 321 315 314 315 311 308 307 307 307 308 310 315 319 321 322 322 322 322 322 321 321 320 320 321 322 322 322 322
330 330 330 330 332 333 332 332 332 332 331 328 325 324 326 329 329 329 329 329 329 329 328 330 331 331 330 331 331 330 330 329 328 328 328 328 328 329 328 327 328 328 327 327 327 326 325 324 324 325 326 327 327 326 325 326 327 325 320 313 312 312 309 307 307 307 310 316 320 322 322 322 322 322 322 321 321 321 320 319 320 321 321 320 320
327 329 330 330 331 332 332 332 332 332 331 329 328 327 328 329 329 329 329 329 330 330 328 329 331 331 331 331 331 330 330 330 329 329 329 329 329 329 328 327 328 328 327 327 327 326 326 326 326 324 325 326 326 324 324 326 325 325 325 317 310 310 309 308 308 308 313 320 322 323 323 323 322 322 321 321 321 321 321 321 320 319 316 315 316
325 326 328 330 331 331 332 332 332 333 331 330 329 328 329 329 329 330 330 329 330 330 330 330 331 331 330 331 330 330 330 329 329 329 328 329 329 329 328 327 328 329 328 327 327 327 326 327 326 325 324 325 325 323 323 326 326 324 325 321 312 309 309 309 309 311 317 321 323 323 323 322 322 321 321 322 322 322 322 322 319 316 311 309 310
327 326 327 330 331 332 331 331 332 333 332 330 329 328 329 329 329 331 332 330 330 330 330 331 331 331 330 330 329 329 329 329 328 328 328 329 329 328 328 328 328 328 328 328 328 327 326 327 327 325 325 325 324 324 324 325 326 325 324 324 319 311 308 310 312 316 320 322 323 323 322 322 322 321 321 322 323 323 321 320 318 313 308 307 307
330 328 329 330 331 332 332 331 331 332 332 331 330 328 329 330 330 331 332 331 330 330 330 330 331 331 330 329 328 328 329 328 328 328 328 329 329 328 328 328 327 327 328 328 328 328 327 326 327 326 326 326 325 325 324 325 325 324 324 325 323 316 309 311 317 320 322 323 323 322 323 323 322 322 322 323 324 319 314 314 313 309 307 307 307
331 331 331 331 331 332 332 331 330 332 332 331 329 327 328 329 329 330 331 332 331 330 330 330 330 331 330 329 328 327 327 327 327 328 328 328 328 328 328 327 328 328 327 327 328 328 327 326 326 327 326 326 325 325 325 325 324 324 324 323 324 321 312 311 319 324 323 322 322 323 324 324 322 322 322 324 322 313 306 308 308 307 308 308 306
330 331 331 331 331 332 333 332 330 331 332 331 328 328 328 328 328 329 331 332 331 330 330 330 329 330 330 329 328 327 327 327 327 327 328 328 328 327 328 328 327 327 327 327 328 327 326 326 327 327 326 326 325 326 325 326 325 325 324 323 323 324 318 312 317 324 324 323 323 324 325 324 323 323 323 323 320 309 305 307 307 307 308 306 304
331 332 332 331 331 332 333 332 331 331 332 330 327 327 329 328 328 329 331 331 331 331 330 330 329 329 330 329 329 328 328 328 328 327 327 328 328 327 327 327 327 327 327 327 327 327 326 327 327 327 326 326 326 326 325 325 325 325 325 324 323 324 322 316 315 319 322 324 324 324 324 324 324 324 323 323 318 308 305 308 308 307 305 303 302
331 332 332 331 331 331 332 332 332 331 331 329 326 327 329 328 328 330 331 331 330 330 330 330 329 329 329 329 329 328 328 328 327 328 327 327 328 327 327 327 327 327 327 327 327 326 326 327 327 327 327 326 325 326 326 326 326 325 324 324 324 323 324 322 318 316 318 321 323 324 324 324 324 324 322 323 318 307 306 309 307 305 303 302 301
331 332 332 331 331 331 331 332 332 329 329 328 326 327 329 330 329 330 330 330 329 330 331 330 330 329 329 330 329 329 329 328 328 328 328 327 327 328 327 327 327 327 327 327 327 326 326 327 327 327 326 326 325 326 326 326 326 326 325 324 324 323 323 323 322 320 318 319 320 322 323 324 324 323 323 323 315 306 307 308 305 304 302 301 301
331 331 331 331 331 331 332 332 329 327 328 329 328 328 330 331 330 329 329 330 330 330 330 330 329 329 330 330 330 329 329 329 329 328 327 327 327 328 327 327 327 327 327 327 326 326 327 327 327 326 326 325 325 325 325 325 325 325 325 324 324 323 323 323 323 323 322 320 320 321 322 324 324 322 322 320 311 306 308 307 304 303 302 301 302
330 331 331 331 331 331 331 330 328 328 330 330 329 329 331 331 329 327 328 330 330 329 330 330 329 329 329 330 330 329 329 329 329 328 327 327 327 328 327 327 327 327 327 327 327 327 327 327 326 326 326 325 325 325 324 324 324 324 324 324 324 324 323 323 323 323 323 323 322 322 322 324 324 321 319 315 307 307 308 306 303 303 302 302 302
330 330 331 331 331 330 330 329 328 329 330 330 330 330 330 329 329 329 329 330 330 329 330 329 329 329 329 330 329 329 329 329 328 328 327 326 327 327 327 327 327 327 327 326 327 327 327 326 326 326 325 325 325 324 324 323 323 324 324 323 323 324 323 322 322 322 323 323 324 323 323 324 320 315 312 309 306 307 306 304 303 302 302 303 302
331 330 331 331 330 330 330 329 330 329 329 330 330 329 327 327 328 331 331 330 330 330 330 330 330 329 329 330 329 328 329 328 328 327 327 327 327 327 327 327 327 326 327 326 326 326 327 326 326 325 324 324 324 324 324 323 322 323 322 322 322 322 322 321 321 322 323 323 324 323 323 323 316 307 307 307 307 307 305 303 303 303 303 303 302
331 331 331 330 331 330 330 330 330 330 329 330 329 327 327 328 329 330 330 330 330 330 330 329 330 330 329 329 328 328 328 328 328 327 327 327 327 327 327 328 328 327 326 326 326 326 326 326 325 323 323 324 324 323 323 322 322 322 321 321 321 321 321 321 321 322 323 323 323 322 323 323 314 306 307 307 307 306 304 303 304 304 304 304 303
331 331 330 329 330 330 329 329 329 329 329 328 327 327 328 329 329 330 330 329 329 329 329 329 329 330 329 328 328 328 328 328 328 327 326 327 327 327 328 328 328 328 327 326 326 325 326 325 324 324 323 323 323 323 322 321 321 321 321 321 320 320 321 321 322 323 323 322 322 322 323 322 312 306 307 307 306 304 304 304 305 306 306 306 306
331 331 330 329 330 330 329 329 328 329 328 327 327 328 329 328 329 330 330 329 329 329 329 329 329 329 329 328 328 328 328 328 328 327 327 327 327 327 327 327 327 328 327 326 326 325 325 325 324 324 323 322 322 321 321 321 321 321 320 319 318 317 317 317 318 320 321 320 320 321 321 317 309 306 307 307 305 304 305 306 307 307 308 308 308
331 330 330 330 330 330 329 327 327 328 328 327 328 329 328 327 328 330 329 329 329 329 329 328 328 328 328 328 328 328 327 327 327 327 326 326 327 327 327 327 327 327 325 326 326 324 324 324 324 323 322 321 321 320 320 321 320 320 319 317 315 314 312 310 310 312 314 314 314 314 312 309 307 307 308 306 305 305 305 307 307 308 309 310 310
330 330 330 330 330 329 328 327 328 329 328 328 328 328 327 327 328 329 328 327 328 328 327 326 326 327 328 327 327 327 326 327 327 327 326 326 326 327 327 326 326 326 325 325 325 324 323 323 322 321 321 319 319 319 319 319 318 318 318 317 315 314 312 310 308 308 308 308 308 308 307 307 307 307 307 306 305 305 306 307 308 309 309 310 310
330 329 328 328 329 328 328 328 329 330 329 328 328 327 326 327 328 328 326 325 326 325 324 325 325 326 326 326 327 326 326 326 326 326 326 327 326 326 326 326 326 326 325 324 325 324 322 320 319 318 317 317 316 317 317 316 316 316 317 317 315 314 312 311 310 309 308 308 307 307 307 307 307 307 306 306 305 305 307 308 309 309 310 310 311
329 328 327 328 328 329 329 329 329 329 329 329 328 327 326 326 325 323 322 323 324 324 324 324 324 325 325 325 325 325 325 325 325 325 326 327 326 326 326 326 326 325 324 324 325 324 321 319 317 317 316 315 315 315 315 315 314 314 314 314 313 313 311 310 309 309 308 308 308 308 307 307 307 307 306 305 305 306 307 308 309 310 310 311 311
328 327 328 328 329 329 329 329 329 329 329 328 328 327 325 324 322 321 320 320 322 323 323 323 323 324 324 324 324 324 324 324 325 326 326 326 326 326 326 326 326 325 324 323 324 324 322 319 318 317 317 316 315 315 314 314 312 311 312 311 310 310 309 308 308 307 307 307 307 307 307 307 307 306 305 305 305 305 307 308 309 310 311 311 311
327 327 329 330 329 330 329 329 329 328 328 327 326 326 325 325 323 321 320 320 320 322 323 323 323 324 324 324 324 324 325 325 325 326 326 326 326 326 326 326 326 325 323 322 323 323 323 321 320 319 318 318 317 316 315 314 311 308 308 309 308 307 307 306 305 304 304 305 305 306 306 306 306 306 305 305 305 305 307 308 309 310 311 311 311
325 327 329 328 329 330 329 329 328 327 326 326 325 325 325 325 323 321 321 322 322 323 323 323 324 325 325 325 324 324 324 325 326 326 326 326 326 326 326 326 325 324 323 322 322 322 323 323 323 322 321 320 319 318 317 316 312 307 306 307 306 306 305 305 304 303 303 303 304 304 305 306 306 306 305 305 305 305 306 307 309 309 310 310 311
324 326 328 327 328 328 328 328 327 327 326 325 325 325 324 323 322 321 323 324 323 322 322 323 324 326 325 325 325 325 325 325 326 326 326 326 325 325 325 325 324 323 322 322 322 322 323 323 323 323 323 322 321 320 319 317 314 309 307 306 306 306 306 305 305 305 305 306 306 306 306 306 307 306 306 306 306 305 305 306 307 308 309 310 311
325 326 327 326 327 327 327 327 326 326 326 326 326 325 324 322 321 322 324 323 322 322 322 322 323 325 325 325 325 325 325 325 326 326 326 325 324 324 324 323 322 322 322 322 321 321 321 322 322 322 322 322 321 321 319 318 316 313 310 309 308 308 308 309 309 309 309 309 309 309 309 309 309 308 308 307 307 306 306 306 305 306 307 309 310
325 327 328 326 326 327 326 326 326 326 326 326 326 324 323 321 322 323 323 322 322 322 322 322 322 324 325 325 325 325 326 325 324 325 325 323 322 322 321 321 321 320 320 320 320 320 321 321 321 321 321 321 321 321 320 318 316 315 313 312 311 310 310 310 310 310 310 310 310 310 310 310 310 309 309 309 308 308 307 306 306 305 305 306 307
326 328 328 327 327 326 326 326 326 325 325 324 324 323 321 322 322 322 321 321 322 322 322 322 321 322 325 325 325 325 324 322 321 322 321 321 320 319 319 319 319 319 319 319 319 319 320 320 319 319 319 319 319 319 319 318 317 317 315 315 314 313 312 312 311 311 311 311 311 311 310 310 310 310 310 309 309 309 308 307 307 306 306 305 305
328 328 327 327 326 326 326 326 325 322 322 323 323 322 322 321 321 321 321 321 321 321 322 322 321 323 325 326 324 324 322 320 319 319 319 319 319 319 319 319 319 319 319 319 318 319 319 318 318 318 318 318 318 318 318 317 317 316 316 316 315 314 314 313 313 313 313 312 312 312 312 312 311 311 311 310 310 311 311 311 310 310 309 308 307
328 327 326 326 326 326 325 324 322 321 322 323 323 322 321 321 320 320 320 319 320 321 321 321 321 323 326 325 323 321 320 320 320 320 320 320 320 320 320 319 320 319 319 319 319 319 319 318 318 318 318 318 318 318 317 317 317 316 315 315 315 315 316 316 315 315 315 315 315 315 315 315 315 314 314 314 314 314 315 315 315 314 314 313 312
327 327 326 326 326 325 324 322 322 322 323 323 323 322 321 320 319 319 319 319 320 321 321 321 322 324 325 323 321 320 321 321 321 320 320 320 320 320 320 320 320 320 320 320 319 319 319 319 319 318 318 318 318 318 318 318 317 317 317 317 317 317 318 317 316 316 317 317 316 317 317 317 317 317 317 317 317 316 316 316 316 315 315 315 314
327 326 325 324 324 323 322 322 323 323 323 323 323 322 321 320 319 319 319 319 320 321 321 322 323 324 323 322 320 321 321 320 320 320 320 320 319 319 318 318 317 318 318 318 318 318 318 318 318 318 318 318 318 318 318 318 318 318 318 318 318 318 317 317 317 317 317 317 317 317 317 317 317 317 316 316 316 316 315 315 315 315 315 314 314
326 324 323 322 322 322 322 322 322 322 323 323 322 321 321 320 319 320 320 320 320 321 322 323 323 322 321 321 321 321 320 320 319 319 318 318 316 316 314 314 314 314 315 316 316 317 317 317 317 317 317 317 317 317 318 318 318 318 318 318 317 317 317 317 317 317 317 317 317 317 317 317 316 316 316 315 315 315 314 314 314 313 313 312 311
324 322 321 321 322 323 323 322 322 322 322 322 321 320 321 320 319 320 321 321 321 321 322 323 322 321 321 321 320 319 317 317 316 316 315 314 313 313 313 313 313 313 314 315 316 317 317 318 318 318 318 317 318 318 318 318 318 318 318 317 317 317 317 317 317 317 317 317 317 316 316 316 315 315 315 314 314 314 313 312 312 310 309 308 307
322 321 320 320 320 322 322 322 322 322 321 321 321 320 319 319 319 320 321 321 321 322 322 322 321 321 321 319 316 314 313 313 313 313 313 313 313 313 313 313 313 313 313 315 316 317 317 318 318 318 318 318 318 318 318 317 317 317 317 317 317 316 316 317 317 317 316 316 315 315 315 315 314 314 314 313 312 311 311 310 309 308 307 307 307
319 320 320 317 318 320 321 321 321 321 321 321 321 318 318 318 319 320 321 321 321 322 322 321 321 320 318 314 312 312 312 312 312 312 313 313 313 313 313 313 313 313 314 314 316 316 317 318 318 318 318 318 318 318 317 317 317 317 316 316 316 316 316 316 316 316 315 314 314 313 314 314 313 312 312 311 310 310 309 309 309 308 308 308 308
317 319 319 318 318 319 319 320 320 321 321 320 319 318 318 319 319 320 321 321 321 321 321 321 319 317 315 313 312 312 312 312 312 313 313 312 312 313 313 313 313 314 314 315 316 316 316 317 317 317 316 316 316 316 316 316 315 315 315 315 315 315 315 315 315 315 314 313 312 312 312 312 311 310 310 311 310 309 309 308 309 308 308 308 308
316 318 319 319 319 318 318 318 319 319 320 319 319 319 319 320 320 319 319 319 318 318 318 317 315 314 313 312 313 312 312 312 312 312 312 312 312 313 313 313 314 315 315 315 316 316 315 315 315 315 314 315 314 314 313 313 312 312 313 314 314 313 313 313 313 313 313 312 311 311 311 310 309 309 308 309 310 309 308 307 306 307 306 306 306
Wind_Speed
12 11 13 14 13 13 15 16 16 16 17 20 23 25 24 23 21 18 15 13 11 9 7 6 4 2 1 2 3 4 5 6 6 6 5 4 4 4 4 4 4 3 3 3 3 3 3 2 2 2 2 2 1 1 1 0 1 2 3 3 2 2 2 3 4 4 3 3 4 5 5 5 5 6 6 6 7 7 7 6 7 8 9 10 10
12 12 13 15 15 14 15 17 17 18 19 20 23 25 25 23 21 19 16 14 13 10 8 6 4 2 1 1 2 3 4 5 5 5 4 4 3 3 3 3 3 3 3 3 3 3 3 2 2 2 2 2 1 1 1 1 1 2 3 3 3 3 3 3 4 4 4 4 4 4 5 4 4 5 5 6 6 6 6 5 6 7 8 9 10
13 14 14 14 15 15 15 16 17 20 21 21 22 25 25 24 22 20 17 15 14 12 9 7 5 3 2 1 0 1 3 4 4 4 4 3 3 3 2 2 2 3 3 4 3 3 3 3 2 2 1 2 1 1 2 1 2 3 3 3 3 3 4 4 4 4 4 4 4 4 4 4 4 4 4 5 6 5 5 5 7 7 8 9 10
14 15 14 13 13 14 15 16 17 21 23 23 23 24 26 25 23 21 19 16 15 13 11 8 6 5 4 2 1 1 3 4 3 4 3 3 3 3 2 1 2 3 3 3 3 3 2 3 3 2 2 3 1 1 1 1 2 3 3 4 3 3 4 4 4 4 4 4 4 4 4 4 4 4 4 5 5 6 6 7 8 9 9 10 11
15 15 15 15 14 14 15 17 18 21 23 24 24 24 25 25 23 22 20 18 16 15 12 10 8 7 5 4 3 2 3 4 4 4 4 3 3 3 2 1 2 2 3 3 4 3 3 4 3 2 3 3 3 2 2 3 3 4 4 4 4 4 4 4 4 4 4 4 4 4 4 4 5 5 5 5 6 7 8 9 10 11 11 12 12
16 16 16 16 15 14 15 16 18 20 23 25 25 24 24 24 24 23 22 20 18 17 14 12 11 9 7 6 4 3 4 4 4 4 4 3 3 3 3 2 2 2 3 4 5 5 5 5 4 4 4 4 4 4 4 5 5 5 5 4 4 4 4 4 5 5 4 4 4 5 5 5 6 6 6 7 8 9 10 11 12 13 13 13 14
17 17 16 16 15 14 14 14 17 20 22 25 26 25 25 24 24 24 22 21 20 18 16 13 11 10 9 7 5 4 4 4 5 5 4 4 4 3 3 3 3 3 3 5 5 6 6 7 6 7 7 7 6 6 7 6 6 6 6 5 5 5 5 5 5 5 5 5 6 6 6 6 7 7 8 9 10 11 12 12 13 14 14 14 14
19 18 17 17 17 16 15 15 16 18 20 24 26 26 26 24 24 23 22 22 21 19 17 14 11 10 9 8 6 5 4 5 5 5 5 4 4 4 4 3 3 4 4 5 5 5 7 8 8 8 9 10 10 8 8 8 8 8 7 6 6 6 6 6 6 6 6 6 7 7 7 8 8 9 10 11 12 13 13 14 14 14 14 14 14
19 19 19 19 18 18 18 17 17 16 18 22 25 26 27 25 24 23 21 21 20 19 17 13 11 11 10 8 7 6 6 6 7 6 5 5 5 4 4 3 3 4 3 4 4 3 5 6 6 8 9 10 11 11 10 8 8 8 8 7 7 7 7 7 6 7 7 7 8 8 8 9 11 11 12 13 14 14 14 14 14 14 13 13 14
21 21 19 18 18 19 19 19 18 16 16 19 23 26 27 26 24 23 22 19 18 17 15 13 12 12 11 9 8 7 7 8 8 7 6 6 6 5 4 4 3 3 3 4 3 2 2 2 3 4 5 6 9 10 11 9 7 7 8 7 7 8 8 7 7 7 8 8 8 9 10 11 12 13 14 14 14 13 13 13 13 13 13 13 13
21 20 17 17 18 19 20 21 20 16 14 16 21 25 27 26 24 23 22 19 16 15 14 13 13 12 11 10 8 8 8 9 9 9 8 7 6 5 5 4 4 4 3 3 2 2 2 1 1 1 1 3 6 6 8 8 7 6 6 7 7 7 7 7 7 8 8 8 9 9 11 12 13 14 14 13 13 13 12 12 12 11 12 12 13
17 18 17 16 18 19 20 21 20 17 14 15 18 22 25 26 25 22 21 20 17 14 13 13 12 11 10 9 9 9 9 9 9 9 8 7 6 5 5 4 4 4 3 3 2 2 3 2 2 2 0 1 3 4 4 5 6 6 6 6 6 6 6 6 7 7 8 8 9 10 12 13 13 13 13 13 13 12 11 11 10 10 11 11 10
14 16 17 17 18 18 18 20 21 19 17 16 16 17 21 24 24 22 21 20 19 16 15 13 12 11 10 9 9 9 9 9 9 8 8 8 7 5 5 5 5 5 4 4 3 3 3 3 2 2 1 0 2 2 2 3 4 5 6 6 5 5 6 6 6 7 8 10 11 11 12 13 13 13 12 12 12 12 11 10 9 9 9 9 8
13 14 15 17 19 18 17 19 21 21 20 19 16 16 19 22 23 23 21 20 18 18 17 15 13 13 11 10 10 9 8 8 8 8 8 9 9 7 6 6 6 6 5 5 5 4 3 2 2 1 2 1 1 0 1 2 2 3 5 6 5 5 5 6 6 8 10 11 11 11 12 12 12 12 11 11 11 11 10 9 8 8 7 6 7
12 13 15 17 19 19 17 18 20 22 23 21 18 17 20 22 22 22 22 20 18 17 17 16 15 14 13 11 11 10 9 9 9 9 9 10 10 9 8 7 6 7 7 6 6 6 5 4 3 2 3 2 1 1 1 1 1 1 3 4 5 4 5 6 7 8 9 9 10 10 10 11 10 10 9 8 8 8 9 7 7 7 6 6 6
14 14 14 16 18 18 17 18 19 21 23 22 19 19 21 22 22 22 21 20 19 17 16 16 16 15 14 12 11 11 9 11 12 11 10 10 10 10 8 8 7 7 10 9 7 7 6 5 4 4 4 3 2 1 1 1 0 1 2 3 5 4 5 6 7 8 8 8 8 8 8 9 8 7 7 6 6 6 7 7 7 7 7 6 7
16 15 15 16 18 17 17 20 20 20 22 22 20 20 20 21 21 21 20 18 17 17 17 17 17 17 15 12 10 10 9 10 12 11 11 10 9 9 9 9 8 7 9 10 8 8 7 6 5 5 5 4 3 2 2 2 2 1 1 2 3 4 5 7 8 8 8 6 6 6 7 6 6 6 5 4 4 5 6 6 6 6 6 7 7
17 17 17 17 18 18 18 21 21 20 22 23 21 20 20 20 20 20 18 16 16 16 17 18 18 17 16 14 9 8 9 11 11 10 11 11 9 9 8 8 8 8 9 10 10 9 8 7 6 5 5 4 3 3 3 3 3 2 2 2 3 3 4 7 9 8 6 5 5 4 4 4 4 4 4 4 5 4 4 5 6 6 6 6 6
18 18 18 18 18 18 19 21 22 21 22 23 21 19 19 19 20 19 18 18 17 16 17 18 18 17 17 16 11 6 7 9 10 10 10 11 10 10 8 8 8 8 9 10 10 9 8 7 6 6 6 4 4 4 3 3 3 2 2 2 3 3 4 7 9 8 5 5 4 3 3 4 3 3 3 5 5 4 4 5 6 5 4 4 4
18 17 18 18 17 18 19 21 22 23 23 22 20 18 18 19 20 20 19 18 16 16 17 17 18 19 20 18 14 8 6 6 7 8 9 9 10 10 9 9 9 8 8 8 8 9 9 8 6 6 6 5 5 5 3 4 4 3 3 2 2 3 4 6 7 7 7 6 5 4 4 4 3 3 4 5 4 3 4 5 5 4 3 3 4
19 17 18 18 18 19 19 20 22 23 23 22 20 18 18 18 20 21 20 17 15 15 16 16 16 18 20 19 16 12 9 7 6 7 8 7 8 9 10 10 9 8 8 7 8 10 10 8 7 6 7 6 6 6 5 4 5 4 4 4 3 2 3 5 6 7 7 7 7 6 5 5 4 4 5 3 3 3 4 4 3 3 3 4 4
18 17 19 20 19 20 21 21 22 24 23 22 21 21 20 19 20 20 18 16 15 16 16 15 14 15 18 19 17 14 11 8 6 5 6 6 6 6 8 10 9 9 9 8 8 11 11 9 7 7 7 7 7 7 6 5 6 6 5 6 5 4 4 5 6 7 7 7 6 5 5 5 5 5 4 2 3 4 3 3 2 3 3 3 4
16 17 19 20 20 21 22 22 22 24 23 22 22 22 21 19 19 17 16 16 15 16 16 15 12 12 16 17 15 13 10 6 4 3 3 4 4 5 6 8 8 8 9 9 10 12 12 10 9 8 8 8 8 8 7 7 7 7 6 6 6 6 5 5 6 7 7 6 6 5 5 5 6 6 4 3 4 4 3 2 2 2 3 3 3
16 17 18 19 20 21 21 21 22 23 23 22 22 22 21 18 17 16 15 15 15 15 16 15 13 13 15 16 13 12 9 6 4 3 3 3 4 5 5 7 8 8 9 9 10 11 11 11 11 10 9 9 9 8 7 7 7 8 7 7 7 7 6 6 7 7 7 7 7 6 5 6 9 7 4 5 5 4 3 2 1 2 2 2 3
14 16 17 18 19 19 19 20 21 23 23 22 21 21 19 17 16 16 15 14 14 15 15 14 14 14 15 15 13 10 9 8 5 4 5 6 6 6 6 6 8 8 9 9 9 9 9 11 12 10 9 9 8 7 6 6 7 7 7 7 8 8 8 7 7 8 8 7 7 7 7 8 11 8 5 6 6 4 3 1 1 2 2 2 3
12 13 16 18 18 19 20 20 20 21 21 21 20 18 17 17 16 16 15 15 14 14 15 15 15 15 15 14 12 10 9 8 7 6 6 6 6 7 6 6 7 8 8 9 10 9 8 11 11 10 9 9 7 6 5 5 6 6 6 6 7 8 8 8 7 8 8 8 7 6 5 4 9 8 6 7 6 4 3 1 1 2 2 3 4
12 12 15 17 19 21 21 20 19 19 19 18 18 17 17 17 17 16 15 15 16 16 16 16 15 14 13 12 11 10 10 9 8 7 7 7 6 6 5 6 8 8 7 7 9 9 8 9 10 10 9 8 7 6 6 5 5 5 5 5 5 6 7 7 6 6 6 8 8 5 2 3 6 7 7 7 5 4 2 1 1 2 3 4 4
13 13 15 17 20 21 21 20 19 18 17 16 16 16 16 16 16 15 14 15 16 15 15 15 14 13 11 11 11 11 10 10 9 8 8 8 8 7 6 6 8 8 7 6 6 8 9 8 8 9 9 7 7 6 6 5 4 4 4 4 3 4 4 5 5 4 4 6 7 6 5 5 5 6 7 6 4 3 2 1 1 3 3 4 5
15 16 19 19 20 20 20 20 19 18 17 16 16 15 15 14 15 15 14 14 14 13 13 12 12 11 11 11 11 11 10 10 10 9 8 9 9 8 7 7 7 7 7 6 4 5 8 8 7 7 8 7 6 5 4 4 4 4 3 3 3 3 3 3 4 5 5 6 7 8 7 6 5 6 6 5 4 3 2 1 1 2 3 4 5
16 18 20 21 20 20 19 19 18 18 17 15 15 14 14 14 15 15 14 13 13 12 12 12 11 11 10 10 11 11 10 10 9 9 9 10 10 9 8 7 8 8 6 4 2 2 6 8 7 7 6 5 4 3 3 3 4 4 3 3 3 3 3 4 4 4 5 6 7 8 8 7 6 6 6 5 4 3 2 0 1 2 3 4 5
17 18 19 20 20 19 19 18 17 17 16 15 15 14 14 13 13 13 12 12 12 12 12 11 11 11 11 11 11 11 10 10 10 10 9 10 10 10 10 9 8 9 8 5 2 2 6 8 7 7 5 4 4 3 2 3 4 4 4 4 4 4 4 4 4 4 4 5 6 6 6 6 6 6 5 4 4 3 2 1 2 3 4 5 5
17 17 17 18 19 19 18 17 17 17 16 15 15 15 14 14 14 14 13 13 13 12 12 12 11 12 12 12 12 12 11 10 10 10 10 10 10 10 10 9 9 10 10 6 3 3 7 8 7 6 5 4 4 4 3 3 3 4 4 4 4 4 4 4 4 4 4 4 4 4 5 4 4 5 4 4 4 4 3 2 3 4 5 5 5
18 18 18 18 18 18 17 16 17 17 16 16 15 15 15 15 14 14 13 13 13 12 12 12 12 12 12 12 12 12 11 11 11 11 11 10 9 9 10 10 11 12 11 8 5 5 8 8 7 7 6 6 6 5 5 4 3 4 5 5 4 3 3 3 3 3 3 3 3 2 3 3 4 5 5 5 5 5 4 4 5 5 6 5 5
19 18 17 17 17 17 16 17 17 17 16 15 14 15 16 15 13 12 12 12 12 12 12 12 11 11 12 12 12 12 11 11 11 11 11 10 9 9 10 11 12 13 13 10 7 7 8 8 7 7 6 6 6 5 4 4 3 4 5 6 6 5 4 3 3 3 3 3 3 3 3 4 5 6 6 6 6 6 6 7 7 7 7 7 6
19 17 17 17 17 17 17 17 17 16 15 14 14 15 15 14 12 10 10 11 12 12 12 11 11 11 12 12 12 11 11 11 11 11 10 10 9 9 10 11 13 14 14 12 9 7 7 7 7 6 5 5 5 5 4 3 3 4 6 7 7 7 6 5 5 5 5 5 6 6 6 6 7 7 8 8 8 9 9 9 9 9 8 8 8
18 17 17 17 17 17 18 17 17 16 15 15 15 15 14 12 11 9 8 10 11 12 11 10 10 11 11 11 11 11 10 10 11 10 10 9 9 10 10 11 13 14 14 13 11 9 8 7 6 5 5 4 5 5 4 3 2 3 5 8 8 8 8 7 7 7 7 7 7 7 8 8 8 8 9 10 10 11 11 11 11 11 11 10 10
17 15 15 15 16 17 18 16 16 15 15 15 15 15 13 11 10 9 9 11 11 11 10 10 10 10 10 11 11 10 10 10 10 10 9 9 9 10 11 12 12 13 13 13 11 10 8 7 6 6 5 5 5 5 4 3 3 2 3 6 7 8 8 7 7 6 6 6 6 7 7 8 8 9 10 11 12 13 13 14 14 14 14 14 14
15 13 13 14 15 16 15 15 14 14 13 13 13 12 11 10 10 10 11 12 12 10 10 10 10 10 11 11 11 10 10 10 10 9 9 9 8 10 12 12 12 12 12 11 10 9 7 6 6 6 6 6 6 6 5 4 4 3 3 4 5 6 6 6 5 4 4 4 5 5 6 7 8 9 10 12 13 14 15 16 17 17 17 17 17
14 14 15 15 14 14 13 12 11 11 10 10 10 10 9 10 11 12 13 13 12 11 10 10 10 11 11 11 11 10 10 9 9 9 9 9 10 11 12 11 11 10 9 8 7 7 6 6 6 6 6 6 6 7 6 6 6 5 5 4 4 5 5 4 4 5 5 5 6 6 7 7 9 10 11 13 14 14 16 17 18 19 20 20 21
15 16 17 16 15 14 13 11 10 9 9 9 9 9 10 11 13 13 13 13 13 12 11 9 9 11 12 12 11 10 10 10 10 10 10 11 10 10 10 9 9 8 8 8 8 7 7 7 7 7 7 7 7 7 7 7 7 6 5 5 5 6 6 6 6 7 7 8 8 9 9 9 10 11 12 14 15 15 17 18 20 21 22 23 24
16 16 16 16 16 14 12 11 10 10 10 10 10 11 12 13 14 14 14 13 13 13 11 10 10 11 12 12 11 11 11 11 12 12 12 11 10 9 9 8 8 8 8 8 7 7 6 6 7 7 7 8 7 7 7 7 6 6 6 6 7 7 8 9 9 9 9 11 11 11 11 11 12 13 13 14 15 15 16 19 21 22 23 25 26
16 15 16 16 15 13 12 11 10 10 11 12 12 13 13 13 14 14 14 13 13 12 10 9 10 11 12 12 13 13 13 13 13 13 13 12 11 9 9 9 8 8 7 6 5 5 4 4 4 5 5 5 6 6 7 7 7 7 7 7 8 9 10 11 11 11 12 12 13 13 12 12 12 13 14 14 15 15 16 18 20 21 22 23 25
15 15 17 17 15 12 10 9 9 10 13 14 14 13 12 12 13 14 13 13 13 12 10 8 9 11 13 15 16 16 14 13 13 12 11 11 10 9 8 8 7 7 6 6 5 5 6 5 5 5 5 5 6 7 8 9 9 9 9 10 10 10 11 11 11 11 11 12 12 13 14 13 13 13 14 15 16 17 17 18 20 20 21 23 24
14 16 18 16 13 11 10 9 10 13 14 14 13 12 11 11 12 12 12 13 13 12 10 8 10 13 17 19 19 17 15 13 12 10 9 8 7 6 6 6 6 6 6 6 6 7 7 7 8 7 7 8 8 9 9 10 10 10 10 10 11 11 12 12 11 11 11 11 11 13 14 15 15 14 15 15 17 18 18 20 21 21 21 23 24
14 16 15 12 10 9 10 11 12 12 13 13 12 11 10 10 10 10 11 12 13 11 9 9 12 17 20 20 19 17 14 12 10 9 7 6 5 4 3 3 3 3 4 5 6 6 7 7 7 8 8 8 9 10 10 11 10 10 10 10 10 10 11 11 11 12 13 13 13 13 14 16 16 15 15 16 16 16 16 16 17 16 16 17 18
14 13 11 8 8 9 11 12 12 11 12 11 10 10 11 10 10 10 10 12 14 12 10 12 16 19 20 19 17 14 12 10 9 8 7 5 4 3 2 1 1 1 2 3 4 5 6 6 6 7 7 7 8 10 10 9 8 8 8 9 9 10 11 12 12 14 14 14 14 13 12 14 16 14 14 15 15 14 13 12 11 10 9 10 10
13 13 12 9 9 10 11 11 11 11 11 10 10 10 11 11 11 9 10 13 14 13 12 15 17 18 18 16 14 12 11 11 10 9 7 5 4 4 4 5 6 6 5 4 3 4 4 5 5 5 6 6 8 8 8 7 6 7 8 9 10 10 12 12 12 13 14 13 14 11 8 9 12 10 10 12 12 10 9 8 7 7 7 8 9
8 11 14 12 9 9 8 8 9 10 10 10 10 9 10 12 12 11 13 16 16 15 15 17 18 18 17 15 14 13 13 12 10 7 6 5 4 3 4 6 7 7 7 6 5 4 4 4 4 5 5 6 8 8 7 6 6 7 8 9 10 10 10 10 9 11 12 12 12 9 5 6 8 5 5 9 9 7 7 7 7 8 9 10 11
3 6 12 12 9 7 6 7 8 8 8 9 9 9 10 12 11 12 15 18 17 17 18 19 19 19 17 16 14 13 12 10 6 3 2 4 4 4 5 7 8 8 7 6 5 5 5 4 4 5 6 6 7 8 8 7 7 7 7 7 7 7 8 8 8 8 9 9 10 9 5 5 6 6 5 7 8 8 8 9 10 11 12 13 13
5 3 9 9 7 5 4 5 6 6 7 8 9 10 11 11 12 15 18 20 20 21 22 22 21 19 17 16 14 11 8 5 2 3 5 7 7 7 7 9 10 9 7 6 6 6 5 5 4 4 5 5 6 6 6 6 6 5 5 5 6 6 6 6 6 6 7 8 8 8 5 4 6 7 5 6 8 8 8 9 11 12 13 13 13
2 3 7 8 7 6 5 6 6 6 7 10 11 11 12 13 15 16 17 18 17 15 15 17 17 16 14 11 9 7 4 4 4 5 6 8 8 7 8 10 11 9 7 6 6 6 6 5 5 4 4 4 4 4 4 5 5 5 5 6 7 6 5 5 5 5 5 5 5 5 3 3 4 5 5 5 6 7 8 9 10 11 11 11 11
Wind_Direction
217 214 203 200 210 204 197 194 197 211 209 198 198 201 204 206 207 209 208 209 213 212 204 195 194 182 136 84 61 63 64 71 82 86 84 78 76 74 65 57 54 51 44 23 16 32 41 57 51 13 7 360 360 29 60 270 317 16 40 56 64 55 40 26 27 30 27 34 44 45 49 54 53 49 45 44 43 44 43 46 55 60 65 69 72
222 219 206 198 204 206 204 198 198 210 209 200 199 201 205 206 206 208 208 209 213 215 209 205 211 217 201 131 64 71 78 86 93 93 94 94 85 76 64 54 55 48 36 24 33 53 38 34 25 349 343 7 22 18 35 24 3 39 49 52 52 46 53 45 40 42 42 58 66 68 69 68 66 58 49 48 50 53 53 60 73 76 77 80 81
223 223 217 204 200 202 206 203 200 202 201 199 199 202 206 207 207 208 208 208 213 216 211 211 219 226 229 225 124 94 107 114 109 107 111 108 92 76 63 44 46 42 36 33 41 49 24 13 28 44 31 9 7 8 39 55 29 46 57 57 52 48 57 55 52 56 60 72 80 88 87 80 73 65 56 57 63 70 73 78 86 89 87 88 87
225 225 223 217 210 205 205 204 202 200 196 197 199 202 206 208 206 207 209 208 212 216 214 214 222 228 230 228 209 143 129 132 125 126 128 118 106 95 83 54 48 43 39 39 45 53 46 48 66 72 23 359 24 39 36 62 56 63 67 67 61 55 62 65 66 68 70 80 90 96 92 86 80 74 71 71 79 84 86 88 91 93 90 90 90
224 224 222 224 222 214 209 206 204 201 197 197 200 201 204 207 205 205 208 208 210 214 217 219 224 229 228 221 204 164 142 144 140 142 137 128 123 117 117 98 87 72 55 56 61 66 69 77 88 60 25 38 63 60 55 72 77 78 74 73 73 69 69 71 77 79 84 90 94 99 97 93 88 86 86 86 90 91 92 95 94 94 92 90 88
224 223 219 220 219 214 213 210 207 204 199 199 202 203 203 204 203 204 205 207 210 214 219 224 228 231 224 216 207 180 161 156 152 152 144 138 139 132 135 124 110 100 82 79 75 72 73 81 90 72 64 69 70 76 80 75 76 82 80 79 81 85 83 82 88 89 92 95 94 100 101 97 95 94 96 96 98 98 98 99 97 95 92 90 86
226 223 219 220 219 213 210 210 211 209 204 202 203 205 205 204 203 203 205 207 210 215 220 224 227 228 221 216 213 194 177 167 160 157 152 152 154 147 142 129 109 105 98 94 86 82 84 84 85 84 81 76 79 89 85 75 75 79 78 79 87 92 91 92 98 99 97 96 96 100 100 98 99 101 104 104 103 101 98 95 93 92 90 87 85
232 227 223 221 220 215 207 206 213 213 209 206 205 206 206 205 204 204 207 209 211 215 219 221 220 219 216 217 215 203 189 176 169 164 164 164 165 158 148 139 120 113 112 102 92 92 94 90 82 81 81 76 80 86 83 78 76 78 76 77 86 88 89 93 98 102 99 97 100 100 99 100 103 106 108 104 101 98 95 91 89 88 86 84 83
240 237 230 224 222 219 209 205 211 213 211 208 208 208 207 206 205 204 207 211 213 216 218 217 216 214 213 217 214 204 195 185 176 171 173 174 173 166 155 150 133 128 125 108 106 111 101 93 81 76 76 74 75 75 74 72 73 77 73 72 85 86 87 92 95 97 98 100 102 100 102 106 108 109 107 101 98 95 92 90 88 87 84 82 81
249 247 238 230 230 225 216 210 210 211 211 209 210 210 208 206 207 207 207 209 214 219 221 219 216 214 212 214 211 201 196 193 184 177 180 181 178 172 167 162 151 155 145 125 135 138 109 87 80 75 68 69 71 67 64 62 65 74 73 74 86 89 86 87 91 93 96 99 100 103 107 109 109 107 103 99 95 92 90 88 87 86 84 80 77
257 261 249 238 239 233 224 215 210 209 209 208 211 211 208 207 207 209 208 208 211 218 222 219 215 213 212 211 205 199 200 199 189 184 186 186 183 179 178 173 170 176 167 156 173 153 147 177 136 123 25 55 70 67 58 55 56 63 74 81 84 87 86 84 87 89 91 98 102 108 112 110 107 103 98 95 91 89 87 86 87 86 83 80 77
257 265 259 248 245 240 233 224 213 210 209 207 209 211 209 208 208 209 211 210 208 208 211 212 211 208 208 206 198 197 205 205 196 190 192 192 188 185 185 182 182 185 182 182 192 188 191 198 173 158 205 26 58 66 55 51 53 58 70 82 83 85 88 86 87 89 94 101 104 107 109 108 105 101 98 94 89 86 83 83 85 82 81 85 86
251 261 261 257 254 246 240 234 221 211 211 207 203 207 209 210 210 209 212 213 210 206 203 205 209 202 192 189 191 199 207 208 206 202 201 201 196 191 189 191 195 193 193 197 194 201 212 200 175 167 185 251 35 46 23 34 52 60 66 77 85 82 84 89 90 96 104 106 106 106 106 106 104 101 98 93 87 81 79 79 79 80 82 87 89
251 262 262 261 261 254 244 237 224 214 213 208 201 202 206 209 211 211 211 214 215 214 207 203 209 206 190 177 180 195 205 209 215 218 216 211 206 199 194 197 204 205 204 207 202 202 215 203 174 189 216 236 54 329 329 42 51 59 69 72 82 87 88 95 95 102 109 111 112 111 109 107 104 101 97 92 85 79 77 76 78 81 75 69 76
251 264 263 259 259 256 246 233 223 218 215 209 205 205 206 208 211 212 211 210 212 216 212 206 207 202 187 176 179 185 194 203 212 223 221 213 210 208 206 205 210 220 218 213 210 206 206 204 191 199 219 223 184 236 275 100 48 33 83 76 80 92 97 101 103 109 116 120 119 115 111 107 103 100 92 84 80 80 77 74 79 77 60 57 73
246 255 259 257 255 254 243 227 221 221 216 210 208 208 209 210 211 212 211 208 207 208 209 209 209 201 186 179 186 192 200 208 210 219 218 209 209 210 211 213 215 225 219 211 216 215 210 206 198 200 206 202 191 222 218 142 359 6 87 79 77 90 103 112 117 123 128 128 121 114 108 105 100 93 85 75 70 76 77 79 86 76 64 74 86
244 247 252 251 250 251 240 225 221 221 216 214 210 207 210 212 212 213 212 211 212 209 208 209 210 210 204 190 185 198 211 210 209 213 211 206 210 209 208 216 220 222 216 213 218 219 219 216 205 204 204 193 190 201 199 189 201 201 155 94 82 94 119 131 132 133 135 132 123 116 111 108 99 86 81 82 78 76 76 86 92 82 79 87 89
249 247 248 248 244 243 234 224 224 222 217 215 209 205 210 214 215 217 216 216 214 213 214 211 208 211 214 208 198 202 205 199 200 204 203 203 209 209 210 216 217 215 212 214 217 216 220 223 216 212 209 198 195 198 201 212 214 200 188 161 122 113 134 147 143 136 138 138 134 130 129 126 108 90 93 105 103 89 81 97 100 91 89 88 83
253 248 245 243 239 234 225 220 224 222 216 213 209 208 213 216 218 221 223 220 212 212 217 215 210 207 209 212 209 197 185 184 189 191 193 199 205 207 210 213 212 213 213 216 217 213 212 218 220 218 214 207 201 205 208 219 231 221 201 178 143 132 148 163 157 147 154 161 157 163 162 150 124 99 119 123 119 106 95 104 105 97 90 82 82
252 246 239 236 235 230 220 215 220 220 215 210 207 213 218 217 220 224 225 222 213 211 218 220 216 208 205 207 206 197 181 171 176 180 178 186 198 201 203 209 212 211 210 212 211 206 205 213 220 217 216 213 204 206 210 221 230 223 226 226 177 155 161 175 174 164 171 188 194 196 181 175 173 144 139 135 126 117 110 108 104 98 91 83 85
246 240 233 230 229 230 223 216 218 217 212 206 204 214 221 217 218 222 221 218 214 211 217 224 223 215 209 206 203 201 195 181 178 178 172 170 182 195 202 207 211 208 202 201 200 198 202 210 215 216 217 218 213 213 217 227 229 220 230 237 219 195 179 190 198 189 191 206 211 210 195 193 197 165 155 149 131 126 124 115 105 98 89 83 87
239 231 228 225 224 228 226 220 217 213 206 202 204 213 220 215 215 222 222 217 214 211 215 225 227 220 214 208 203 204 204 199 193 187 188 184 174 185 199 202 204 202 194 197 202 200 203 206 209 217 219 218 219 223 230 236 233 225 232 238 228 215 203 208 214 211 213 217 222 231 215 202 192 173 172 177 149 143 141 128 108 91 81 80 85
232 227 226 225 223 225 224 218 214 209 203 202 206 213 217 213 213 219 219 216 213 210 216 223 220 213 211 209 208 213 215 212 204 185 194 202 182 174 187 194 199 201 195 196 201 200 203 208 212 221 227 228 229 229 230 232 233 232 233 235 229 221 218 220 220 223 226 224 235 249 231 204 189 183 194 197 170 160 154 139 107 80 73 79 81
228 226 226 224 222 223 219 212 208 206 205 206 208 213 214 212 213 215 216 216 210 205 210 213 206 201 204 204 207 216 218 211 205 186 173 181 182 172 177 185 189 201 204 201 203 203 206 214 220 226 234 241 243 238 234 230 230 233 234 229 224 225 228 225 223 225 225 229 237 243 246 220 195 193 208 188 173 171 162 144 102 74 68 78 71
232 228 224 220 219 218 209 203 204 206 208 209 210 214 213 210 214 217 218 214 206 199 200 203 200 197 199 201 204 210 209 204 201 194 177 172 178 174 173 179 183 195 202 201 207 213 216 221 225 229 236 243 247 247 245 239 235 235 233 226 218 221 230 231 232 229 225 229 235 247 267 232 192 184 192 177 170 176 169 151 97 80 67 63 52
245 234 223 213 206 201 196 197 204 207 208 210 210 212 211 211 215 218 216 208 200 196 195 198 200 198 197 198 199 200 199 198 199 199 187 176 183 188 178 172 179 189 197 200 206 213 225 230 228 230 236 240 248 256 257 249 242 235 231 227 217 217 226 231 237 238 231 227 228 246 277 219 173 164 172 171 169 177 174 150 98 71 50 44 38
242 229 217 205 192 188 190 194 201 204 205 207 207 208 211 215 215 212 209 200 193 193 194 194 196 197 196 192 191 190 191 194 196 197 189 176 181 194 186 172 174 184 198 204 206 209 221 231 228 228 233 239 250 262 266 259 247 236 230 225 214 214 222 228 237 242 227 218 219 228 230 171 153 154 166 168 169 180 178 137 87 45 36 38 35
229 213 200 192 186 185 187 192 195 198 200 202 206 211 214 215 211 204 203 199 194 195 195 192 193 196 195 191 187 184 187 193 194 192 189 183 179 180 183 182 177 179 189 202 213 217 217 218 222 226 227 232 246 257 264 261 248 234 224 215 204 204 209 218 226 222 197 195 206 211 197 175 162 164 168 168 174 186 180 125 59 33 34 32 27
219 200 185 180 181 183 186 190 193 195 197 201 209 214 211 210 206 199 197 195 195 197 194 191 194 199 198 190 183 183 189 193 193 193 191 189 185 178 180 188 183 175 176 185 206 220 215 207 209 220 223 227 239 247 253 249 235 220 204 184 166 167 169 173 191 197 182 175 188 194 187 177 175 176 175 175 185 192 180 122 44 28 24 17 14
211 193 182 179 180 184 187 191 194 196 198 202 209 209 205 207 207 199 192 189 192 196 193 190 194 201 202 192 185 188 194 193 192 195 193 191 191 187 184 183 181 180 176 169 158 179 194 195 193 202 212 220 220 219 231 231 215 197 173 151 137 132 129 129 149 178 184 176 176 179 179 179 182 183 183 189 195 197 190 154 18 4 353 351 354
206 191 185 185 186 188 190 193 197 200 201 201 203 202 200 203 205 199 194 192 195 196 196 197 198 201 203 199 197 198 198 196 195 196 192 191 193 192 191 185 177 177 176 162 110 136 173 180 186 188 189 197 200 194 207 216 200 180 162 147 141 135 124 119 126 146 163 164 162 164 172 179 186 188 192 203 207 207 212 254 312 320 323 328 335
205 194 189 190 192 193 194 197 200 201 199 194 194 196 198 198 197 197 198 196 197 198 199 202 203 202 203 203 204 204 203 203 200 198 194 190 192 192 191 188 177 171 169 156 109 131 161 165 172 178 175 180 183 172 177 197 200 190 176 161 153 152 143 135 135 140 144 147 153 162 173 183 195 202 210 223 224 225 237 262 282 293 300 308 317
204 196 193 194 195 196 198 200 198 196 194 190 188 191 193 192 190 193 196 194 195 196 196 200 202 202 204 204 205 206 207 205 202 202 198 192 193 193 190 188 179 169 161 152 133 141 158 157 152 154 155 157 158 159 169 185 201 203 193 179 170 168 164 162 162 159 154 151 157 174 197 211 217 219 227 239 239 239 250 263 273 281 287 294 303
201 196 196 196 194 195 196 195 192 190 191 189 185 184 184 183 183 188 194 195 195 194 192 195 197 199 200 201 204 206 206 205 203 201 199 193 193 194 192 188 179 167 158 155 150 148 158 162 152 142 140 146 158 170 183 193 211 216 205 194 185 180 180 183 193 202 205 204 204 211 223 232 233 233 237 243 245 249 257 266 274 279 283 287 292
196 198 200 197 193 191 189 188 187 186 186 183 179 178 177 178 180 186 194 198 197 195 194 195 196 196 199 201 203 204 203 201 198 195 192 190 190 191 189 183 176 168 160 159 156 152 161 167 161 152 147 151 168 186 202 216 231 225 210 203 198 194 195 197 206 216 221 224 225 224 227 233 238 240 244 248 251 253 259 266 271 274 276 278 282
194 200 202 196 192 190 185 184 184 182 181 179 176 177 179 181 185 190 197 197 195 194 193 194 195 196 197 200 201 200 196 192 191 189 185 182 185 187 183 178 174 170 165 162 161 162 167 171 173 173 175 181 192 202 215 232 246 231 214 210 209 208 208 209 212 216 219 222 226 229 231 234 238 242 247 251 255 256 260 265 268 270 273 275 278
200 204 200 195 196 191 183 182 183 180 181 180 177 178 182 186 191 195 194 189 187 186 183 183 188 189 188 191 194 193 190 187 186 185 180 177 182 186 182 176 174 172 169 167 168 171 176 185 193 197 202 212 221 226 231 238 243 236 214 211 213 216 218 218 217 218 220 223 229 234 239 244 249 252 256 258 261 263 266 268 270 272 274 276 277
204 204 196 195 202 194 182 182 184 182 181 181 180 183 187 192 195 190 182 178 175 173 171 172 176 177 177 181 186 187 186 184 183 183 180 178 178 179 175 171 171 172 172 173 177 182 189 204 214 220 225 230 238 243 243 240 235 226 214 212 211 212 215 217 218 223 230 238 246 251 256 261 263 265 266 267 268 269 271 272 274 275 275 275 276
202 202 194 194 198 191 181 182 186 185 186 188 190 194 196 197 191 180 172 172 170 166 165 169 173 174 174 176 178 178 176 174 175 177 175 171 166 166 168 167 169 175 180 185 192 199 207 220 231 242 246 243 244 245 242 241 240 233 226 226 225 222 224 228 232 239 248 257 267 270 271 273 274 275 275 274 274 276 277 278 278 278 278 277 277
201 199 193 190 188 184 183 186 192 198 203 205 203 198 194 190 183 175 172 173 171 169 169 174 177 177 177 176 176 175 171 164 161 159 161 164 164 166 170 172 177 186 195 201 206 212 217 224 233 244 251 250 247 241 238 241 248 251 247 246 250 251 253 256 258 264 272 277 282 282 281 282 282 282 281 281 281 283 284 284 283 282 281 279 279
201 199 192 186 183 183 187 195 210 220 217 207 197 188 185 184 178 173 174 175 175 175 179 183 184 183 181 180 177 173 166 157 151 151 155 158 158 162 169 173 178 184 190 196 201 208 214 222 233 242 249 253 248 241 240 244 254 263 260 257 263 268 270 274 274 276 279 281 283 283 283 284 281 279 279 279 280 282 282 282 281 281 281 281 281
198 196 190 185 182 184 194 210 226 221 199 186 182 179 181 182 179 176 177 180 180 181 185 191 190 186 182 177 168 161 157 153 150 150 152 152 149 153 162 166 167 169 173 178 186 198 214 229 242 251 259 261 254 246 246 250 254 258 258 259 265 270 275 279 280 277 276 277 279 280 281 280 279 280 281 281 282 281 279 278 279 280 280 281 281
193 192 188 184 181 185 203 221 214 189 177 176 175 175 177 181 183 183 184 185 184 183 188 197 194 184 174 164 157 154 153 153 153 153 153 154 155 159 167 171 174 177 184 192 201 212 220 227 237 246 254 258 255 250 250 252 253 253 255 256 259 265 273 278 280 279 277 277 280 285 288 288 287 288 287 287 285 282 281 281 281 280 279 279 279
191 191 188 183 178 187 205 205 184 173 174 177 176 174 179 183 184 186 189 189 186 185 190 199 190 175 165 160 156 155 156 156 155 155 155 158 162 170 179 184 190 196 201 209 217 222 226 230 238 243 246 252 257 259 259 259 258 257 256 258 262 269 277 281 285 290 292 292 291 293 296 296 296 295 293 289 286 285 285 284 283 283 282 280 279
190 185 181 177 177 188 194 184 176 175 177 180 182 183 187 190 186 186 192 192 189 187 187 182 171 162 159 159 158 157 159 159 158 155 154 155 155 161 170 178 193 206 214 221 226 230 233 237 243 247 250 254 260 265 267 266 266 265 265 269 273 278 282 286 289 292 295 295 292 291 294 295 296 298 296 292 290 290 291 289 289 290 288 283 282
184 175 164 161 170 177 178 176 175 177 180 185 189 191 197 199 193 193 199 196 189 181 169 160 158 157 159 161 160 159 156 153 150 145 138 131 120 107 84 28 347 314 282 262 253 249 247 244 246 250 254 256 259 263 263 261 264 270 273 279 284 287 288 289 287 287 288 290 290 291 291 290 292 295 293 290 292 295 295 295 296 295 291 289 292
177 163 144 144 165 172 174 180 182 182 188 194 194 199 206 203 196 196 196 190 184 175 163 158 158 160 162 162 158 153 145 136 132 125 112 98 79 52 29 11 358 347 335 315 295 280 269 262 260 260 260 262 265 267 265 258 260 269 275 281 284 284 286 286 285 286 289 291 292 292 287 283 286 289 287 285 289 294 295 295 294 295 300 306 307
176 165 152 150 168 176 171 180 187 189 198 206 205 207 208 200 194 192 188 185 184 179 170 166 166 167 166 161 152 145 140 135 130 118 99 80 59 33 16 5 353 341 330 318 306 295 284 277 272 265 263 265 270 277 284 282 274 272 275 278 279 279 281 284 286 289 291 293 292 289 284 279 280 281 283 284 286 290 293 292 291 297 304 308 308
65 158 165 163 173 183 171 171 179 184 199 215 219 212 200 193 192 192 190 189 189 184 178 175 174 173 168 159 150 145 146 147 144 121 57 22 8 354 345 342 334 322 309 298 291 286 285 286 280 272 274 278 281 286 292 293 287 281 278 278 278 278 281 283 284 282 281 283 284 283 280 275 274 276 281 283 282 283 287 289 291 295 299 301 304
27 140 175 176 178 182 174 172 177 181 194 207 214 207 194 187 190 194 195 195 193 189 185 181 177 171 163 154 152 156 164 181 228 310 327 328 327 327 327 321 311 299 285 277 275 279 286 289 280 275 279 283 285 289 291 293 292 287 281 275 272 275 278 275 272 270 266 263 264 268 272 279 283 286 292 294 292 294 298 300 301 303 305 307 308
43 146 167 174 180 186 196 193 188 189 191 190 191 189 183 182 185 184 184 184 181 173 170 168 164 159 157 155 161 178 210 251 276 299 312 311 305 300 298 297 292 284 274 266 267 274 280 278 270 268 271 272 276 281 287 293 292 283 273 267 265 267 270 267 266 266 260 255 261 267 277 302 310 312 318 318 311 312 317 320 319 320 321 322 323